SCP
0 0 0 0 0 0 0 0 0 0 0 0 0 0 0 0 0 0 0 0 0 0 0 0 0 0 0 0 0 0 0 0 0 0 0 0 0 0 0 0 0 -0 0 -0 0 0 0
0 0 0 0 0 0 0 0 0 0 0 0 0 0 0 0 0 0 0 0 0 0 0 0 0 0 0 0 0 0 0 0 0 0 0 0 0 0 0 0 0 0 -0 0 0 0 0
0 0 0 0 0 0 0 0 0 0 0 0 0 0 0 0 0 0 0 0 0 0 0 0 0 0 0 0 0 0 0 0 0 0 0 0 0 0 0 -0 -0 -0 0 0 0 0 0
0 0 0 0 0 0 0 0 0 0 0 0 0 0 0 0 0 0 0 0 0 0 0 0 0 0 0 0 0 0 0 0 0 0 0 0 -0 -0 -0 0 0 0 0 0 0 0 0
0 0 0 0 0 0 0 0 0 0 0 0 0 0 0 0 0 0 0 0 0 0 0 0 0 0 0 0 0 0 0 0 0 0 -0 0 -0 -0 0 0 0 0 0 0 0 0 0
0 0 0 0 0 0 0 0 0 0 0 0 0 0 0 0 0 0 0 0 0 0 0 0 0 0 0 0 0 0 0 0 0 0 0 -0 -0 -0 -0 -0 0 -0 0 0 0 0 -0
0 0 0 0 0 0 0 0 0 0 0 0 0 0 0 0 0 0 0 0 0 0 0 0 0 0 0 0 0 0 0 0 0 0 -0 -0 0 -0 0 0 0 0 0 0 0 0 -0
0 -0 -0 -0 0 0 0 0 0 0 0 0 0 0 0 0 0 0 0 0 0 0 0 0 0 0 0 0 0 0 0 0 0 -0 0 0 0 0 0 0 0 0 0 0 0 0 0
-0 -0 -0 -0 -0 0 0 0 0 0 0 0 0 0 0 0 0 -0 -0 0 0 0 0 0 0 0 0 0 0 0 0 0 0 0 0 0 0 0 0 0 0 0 0 0 0 0 0
0 0 0 0 0 0 0 0 0 0 0 0 0 0 0 0 0 0 0 0 0 0 0 0 0 0 0 0 0 0 0 0 0 0 0 0 0 0 0 0 0 0 0 0 0 0 0
0 0 0 0 0 0 0 0 0 0 0 0 0 0 0 0 0 0 0 0 0 0 0 0 0 0 0 0 0 0 0 0 0 0 0 0 0 0 0 0 0 0 0 0 0 0 0
0 0 0 0 0 0 0 0 0 0 0 0 0 0 0 0 0 0 0 0 0 0 0 0 0 0 0 0 0 0 0 0 0 0 0 0 0 0 0 0 0 0 0 0 0 0 0
0 0 0 0 0 0 0 0 0 0 0 0 0 0 0 0 0 0 0 0 0 0 0 0 0 0 0 0 0 0 0 0 0 0 0 0 0 0 0 0 0 0 0 0 0 0 0
0 0 0 0 0 0 0 0 0 0 0 0 0 0 0 -0 0 0 0 0 0 0 0 0 0 0 0 0 0 0 0 0 0 0 0 0 0 0 0 0 0 0 0 0 0 0 0
0 0 -0 0 0 0 0 0 0 0 0 0 0 0 0 0 0 0 0 0 0 0 0 0 0 0 0 0 0 0 0 0 0 0 0 0 0 0 0 0 0 0 0 0 0 0 0
0 0 0 0 0 -0 0 -0 -0 -0 -0 0 0 0 0 0 0 0 0 0 0 0 0 0 0 0 0 0 0 0 0 0 0 0 0 0 0 0 0 0 0 0 0 0 0 0 0
0 0 0 0 0 0 -0 -0 -0 -0 -0 0 0 0 0 0 0 0 0 0 0 0 0 0 0 0 0 0 0 0 0 0 0 0 0 0 0 0 0 0 0 0 0 0 0 0 0
0 0 0 0 0 0 0 -0 0 -0 -0 0 0 0 0 0 0 0 0 0 0 0 0 0 0 0 0 0 0 0 0 0 0 0 0 0 0 0 0 0 0 0 0 0 0 0 0
0 0 0 0 0 0 0 0 -0 -0 0 0 0 0 0 0 0 0 0 0 0 0 0 0 0 0 0 0 0 0 0 0 0 0 0 0 0 0 0 0 0 0 0 0 0 0 0
0 -0 0 0 0 0 0 0 0 0 0 0 0 0 0 0 0 0 0 0 0 0 0 0 0 0 0 0 0 0 0 0 0 0 0 0 0 0 0 0 0 0 0 0 0 0 0
0 0 0 0 0 0 0 0 0 0 0 0 0 0 0 0 0 0 0 0 0 0 0 0 0 0 0 0 0 0 0 0 0 0 0 0 0 0 0 0 0 0 0 0 0 0 0
0 0 0 0 0 0 0 0 0 0 0 0 0 0 0 0 0 0 0 0 0 0 0 0 0 0 0 0 0 0 0 0 0 0 0 0 0 0 0 0 0 0 0 0 0 0 0
0 0 0 0 0 0 0 0 0 0 0 0 0 0 0 0 0 0 0 0 0 0 0 0 0 0 0 0 0 0 0 0 0 0 0 0 0 0 0 0 0 0 0 0 0 0 0
0 0 0 0 0 0 0 0 0 0 0 0 0 0 0 0 0 0 0 0 0 0 0 0 0 0 0 0 0 0 0 0 0 0 0 0 0 0 0 0 0 0 0 0 0 0 0
0 0 0 0 0 0 0 0 0 0 0 0 0 0 0 0 0 0 0 0 0 0 0 0 0 0 0 0 0 0 0 0 0 0 0 0 0 0 0 0 0 0 0 0 0 0 0
0 0 0 0 0 0 0 0 0 0 0 0 0 0 0 0 0 0 0 0 0 0 0 0 0 0 0 0 0 0 0 0 0 0 0 0 0 0 0 0 0 0 0 0 0 0 0
0 0 0 0 0 0 0 0 0 0 0 0 0 0 0 0 0 0 0 0 0 0 0 0 0 0 0 0 0 0 0 0 0 0 0 0 0 0 0 0 0 0 0 0 0 0 0
0 0 0 0 0 0 0 0 0 0 0 0 0 0 0 0 0 0 0 0 0 0 0 0 0 0 0 0 0 0 0 0 0 0 0 0 0 0 0 0 0 0 0 0 0 0 0
0 0 0 0 0 0 0 0 0 0 0 0 0 0 0 0 0 0 0 0 0 0 0 0 0 0 0 0 0 0 0 0 0 0 0 0 0 0 0 0 0 0 0 0 0 0 0
Wind_Speed_500mb
34 35 38 40 42 44 46 46 46 45 44 42 40 40 38 33 29 27 24 28 31 39 32 31 23 31 41 56 29 35 32 24 22 14 20 22 33 19 12 14 26 14 8 15 15 16 20
30 32 34 35 38 39 40 42 42 42 41 41 41 41 37 33 29 28 29 31 30 28 42 46 34 32 47 63 32 31 30 27 35 26 32 35 37 41 29 10 11 16 27 15 16 18 22
29 30 29 31 33 34 35 37 40 40 39 39 40 43 39 34 28 27 23 24 24 20 36 31 30 51 76 35 30 26 34 37 39 37 37 29 17 10 16 14 15 12 10 8 31 24 7
28 29 29 28 29 30 31 33 36 37 37 37 37 36 38 40 45 32 21 22 32 33 23 18 30 54 39 37 29 19 27 34 36 36 43 40 42 48 18 25 12 11 10 6 6 21 2
25 27 27 28 27 26 28 30 33 34 34 34 33 29 28 29 23 19 36 23 6 17 33 28 11 26 17 26 37 31 28 26 26 31 31 22 35 24 12 8 9 14 3 4 11 11 10
20 23 24 26 27 25 24 26 30 32 35 34 32 28 28 30 28 25 12 25 58 6 9 14 18 18 28 30 37 25 22 19 11 11 13 16 21 11 10 10 5 4 1 6 9 9 11
19 20 20 22 24 25 23 24 27 30 32 34 34 34 31 26 27 35 3 3 9 29 67 37 29 20 35 15 35 37 15 12 16 24 13 22 21 8 6 7 4 2 2 5 8 2 9
21 21 22 21 22 23 22 22 25 27 29 31 32 34 32 19 20 17 34 44 38 19 26 39 46 31 38 32 19 43 34 14 20 10 12 16 11 7 6 5 7 6 2 8 12 5 6
23 21 22 22 22 23 23 23 25 28 31 30 29 30 32 14 18 9 13 20 16 12 12 23 35 41 35 28 28 46 35 17 21 17 17 14 2 7 1 9 4 1 1 5 9 17 1
24 24 23 23 24 25 25 25 26 28 31 33 30 28 31 22 9 13 12 10 6 3 11 28 26 24 34 8 16 36 29 11 17 6 6 11 7 3 2 4 2 5 5 4 8 9 6
26 24 23 23 25 25 26 27 27 28 29 31 31 28 30 24 14 10 4 3 3 4 12 18 16 18 19 18 9 27 30 18 9 5 6 2 4 6 7 3 3 3 4 3 5 5 5
25 25 24 24 26 27 27 28 30 31 30 31 31 27 28 28 23 13 4 5 5 13 2 12 15 21 11 24 14 20 14 16 11 6 11 4 2 3 5 5 2 4 2 7 5 5 5
23 25 27 27 25 26 28 30 33 32 31 31 30 28 28 36 25 16 5 7 11 14 8 12 9 12 2 13 15 21 11 15 8 10 11 9 1 4 7 5 3 11 10 9 12 9 9
19 23 27 29 29 29 29 32 35 35 34 33 29 24 27 40 28 16 2 10 19 6 9 2 5 4 9 15 9 17 5 8 10 10 7 7 13 8 12 6 3 6 8 9 9 7 11
15 21 25 29 32 32 32 33 35 38 36 35 29 17 32 40 28 17 2 14 14 12 2 4 2 11 10 7 1 9 12 4 7 13 8 8 10 3 8 3 5 2 8 5 11 3 6
13 16 21 25 30 33 35 37 38 39 41 37 25 7 39 37 23 12 10 8 5 4 3 1 6 3 2 11 9 11 8 4 6 10 2 3 9 2 5 2 12 7 6 7 7 10 15
11 13 16 20 25 30 35 38 40 42 43 38 18 3 39 35 16 14 9 8 5 2 3 8 4 4 3 3 4 7 7 6 5 2 8 6 7 9 2 5 11 5 5 10 5 7 8
18 14 15 17 22 26 31 37 40 43 46 38 12 6 36 24 12 13 5 8 6 4 3 3 4 4 1 3 0 2 3 11 3 4 3 1 7 6 16 1 4 1 8 8 8 12 7
27 22 20 18 20 23 26 31 38 42 46 41 10 11 29 19 7 5 3 2 1 3 3 2 4 4 3 4 8 2 2 6 9 8 10 10 3 8 21 5 6 5 9 8 5 4 14
34 31 26 23 21 22 22 26 31 35 38 34 13 7 16 25 19 13 6 2 2 1 2 4 6 4 4 6 3 6 5 7 8 6 7 9 6 15 14 15 6 10 11 9 10 4 11
40 37 33 29 25 23 22 21 24 28 31 28 17 8 7 5 12 13 5 6 2 3 2 3 4 5 9 1 2 6 4 5 4 8 5 6 10 5 10 16 10 25 30 17 27 39 17
45 43 40 36 31 27 25 20 19 21 22 19 9 4 6 6 3 4 4 5 8 6 6 3 6 5 10 8 7 7 4 4 9 2 6 3 6 4 12 10 12 23 35 33 36 35 29
50 48 46 42 38 34 29 26 20 18 15 7 8 4 2 1 2 4 6 9 7 6 6 3 7 7 5 13 17 20 18 15 2 6 10 4 6 5 12 8 18 18 18 16 9 10 13
55 51 50 48 44 39 36 32 28 22 15 10 7 5 4 6 4 8 10 10 13 11 6 7 13 9 6 7 19 16 6 3 2 4 7 9 7 3 9 12 3 13 2 7 18 19 25
61 56 53 52 50 46 42 38 35 30 25 18 14 9 4 4 9 11 20 11 11 12 10 10 15 11 6 5 7 12 8 9 8 8 3 3 7 3 3 5 21 15 3 8 7 15 18
67 64 60 57 55 53 47 44 42 39 36 33 24 22 14 1 12 11 10 15 7 6 2 9 10 13 9 6 7 7 7 7 9 11 7 6 9 5 6 4 12 7 2 4 6 11 11
75 72 68 65 61 59 55 52 51 48 45 43 39 32 27 14 26 30 17 11 16 9 5 7 11 13 16 4 3 7 8 2 5 7 9 4 2 10 6 8 22 24 18 7 7 12 2
82 79 77 76 72 69 66 62 59 58 55 55 55 50 51 26 46 48 40 35 23 18 9 18 10 7 6 4 7 6 7 9 3 9 13 15 15 10 5 8 21 29 16 13 6 9 11
92 90 86 84 81 79 76 74 71 68 65 62 67 67 63 50 27 30 48 59 58 49 28 33 12 17 27 6 3 6 7 4 6 7 5 8 16 12 25 18 2 36 25 24 26 21 14
Wind_Direction_500mb
60 58 57 55 53 52 51 48 47 46 45 45 43 36 31 33 38 42 43 46 60 59 63 70 91 103 96 74 35 46 47 49 52 76 98 101 102 95 94 106 75 79 125 70 75 70 83
61 56 55 52 52 49 48 49 44 41 41 39 35 34 32 34 39 46 54 62 63 64 74 78 86 101 88 71 47 50 59 68 70 81 95 98 96 104 81 71 69 115 100 89 56 47 55
54 53 50 51 49 48 45 42 43 40 37 35 34 36 36 38 44 47 50 55 54 64 74 75 77 72 68 60 54 59 66 68 72 77 86 88 110 100 103 95 107 117 76 42 23 354 52
52 49 44 42 44 46 43 39 36 37 34 31 34 37 41 51 55 49 58 69 64 67 68 74 70 69 71 54 56 71 65 70 72 75 80 84 90 82 73 113 52 50 52 22 322 6 276
48 46 44 39 36 39 42 38 33 30 29 29 29 34 33 24 11 360 59 54 59 71 65 62 80 62 53 48 59 59 65 75 76 75 74 83 78 70 71 69 38 15 144 317 308 48 317
50 47 42 39 37 34 36 36 33 28 23 22 19 12 1 3 15 31 82 67 58 141 105 51 63 77 26 22 36 40 63 66 97 89 71 59 61 64 29 41 179 235 26 289 270 341 348
33 40 40 40 36 33 32 29 27 24 22 18 16 12 9 13 21 39 117 133 58 49 62 65 54 73 30 44 42 34 49 59 69 63 47 31 64 48 333 334 349 130 181 270 259 39 325
32 26 28 27 29 29 28 25 19 19 19 16 16 17 13 22 21 42 63 75 77 104 69 51 52 47 31 27 35 40 53 63 56 52 353 33 58 327 294 10 72 49 3 290 280 16 352
39 31 25 22 16 18 19 17 12 8 7 9 14 18 20 28 30 22 39 61 62 78 76 26 29 24 16 25 39 13 25 35 54 49 18 91 301 317 171 30 21 39 182 319 261 331 68
34 31 27 21 14 9 10 8 8 6 5 5 8 18 22 30 34 31 48 50 55 51 74 334 357 20 2 30 45 19 26 48 39 137 77 88 331 349 115 96 110 295 78 317 298 19 287
29 31 28 24 15 13 12 10 8 7 3 5 6 12 21 26 34 38 58 80 80 101 55 323 341 345 12 67 341 14 28 58 80 90 121 263 6 18 59 343 80 302 338 279 79 104 13
28 23 23 23 19 13 10 6 8 6 7 5 4 6 16 19 19 32 79 133 114 44 319 339 337 353 13 21 17 351 28 62 75 93 38 110 99 54 348 313 214 8 65 45 67 104 17
22 20 20 19 21 16 8 2 2 3 3 4 4 2 8 12 11 13 79 141 42 91 350 315 333 4 59 348 354 21 29 16 51 59 359 344 78 49 15 334 84 38 42 341 354 5 234
17 18 16 16 15 16 11 3 359 358 359 359 359 0 8 4 7 12 71 57 69 251 236 17 300 304 48 360 25 353 38 40 46 41 80 72 333 16 352 76 207 45 119 139 279 287 282
3 12 14 10 11 12 10 7 2 356 357 354 353 5 7 4 2 9 42 50 183 193 196 331 293 57 335 0 118 28 23 34 24 27 89 33 294 21 32 9 57 320 41 142 95 95 25
347 1 6 5 7 6 8 9 5 0 355 353 353 23 7 2 3 8 72 155 145 211 327 249 94 92 332 312 17 44 6 25 57 44 66 190 335 304 286 57 42 101 160 32 13 336 311
303 330 350 357 1 3 4 7 6 1 358 354 2 28 2 359 6 43 97 201 225 185 27 23 114 89 149 316 11 354 343 33 27 42 56 126 92 288 49 194 180 25 14 44 118 143 213
270 291 315 337 348 356 359 1 4 2 1 0 15 31 360 10 37 52 80 192 141 149 106 94 84 92 118 153 255 89 225 184 171 157 72 180 132 275 236 81 10 315 203 157 126 261 232
261 271 287 307 327 341 351 358 360 3 3 2 16 11 14 31 79 11 7 46 100 146 114 111 117 70 105 143 17 315 294 194 182 171 170 169 310 349 335 42 12 205 209 160 122 83 204
255 261 270 286 304 318 336 349 356 359 5 6 4 16 31 50 72 113 126 329 91 132 117 125 120 120 142 18 12 244 257 182 191 176 160 165 178 182 213 222 160 246 213 195 141 180 250
254 259 262 267 278 295 313 331 345 355 1 10 19 49 11 324 20 74 80 127 87 284 151 165 41 218 162 74 316 261 261 297 143 161 144 140 217 224 258 252 211 256 257 198 204 235 215
253 256 259 261 267 275 287 304 324 341 357 15 31 360 30 66 55 94 29 194 179 278 167 231 157 177 172 178 222 276 190 243 250 126 156 19 259 104 281 292 254 266 250 238 234 253 257
252 253 256 257 259 263 270 279 291 312 338 9 20 16 326 1 357 81 219 169 199 169 204 226 199 131 211 245 268 268 244 261 271 171 173 152 131 37 267 334 312 296 228 182 190 221 166
250 252 253 255 256 257 261 266 272 278 288 295 298 299 294 262 204 210 193 193 193 210 213 205 201 177 213 279 295 271 239 198 146 112 194 132 88 72 276 342 20 250 213 186 191 243 208
248 249 250 252 254 255 255 257 263 268 272 271 267 244 249 283 247 247 219 203 190 210 215 226 224 226 214 316 14 354 340 20 5 28 22 156 127 290 264 227 292 286 161 138 185 269 236
249 249 249 250 251 252 251 254 255 258 259 260 257 250 226 219 251 252 180 201 193 207 191 211 209 201 192 80 72 160 235 217 292 328 20 63 70 143 71 194 264 251 101 123 170 286 36
247 250 252 251 250 250 249 250 252 253 254 255 253 246 231 231 251 234 209 199 182 178 132 163 174 177 182 101 157 190 239 148 240 197 173 143 186 215 168 256 278 259 218 167 63 290 225
246 247 249 250 251 250 249 249 250 252 249 253 254 250 241 230 249 248 238 227 203 193 164 167 127 201 122 153 175 206 209 216 193 198 182 180 163 198 128 218 274 181 137 191 201 211 211
247 248 248 248 248 249 250 250 249 250 249 249 248 252 246 229 258 254 245 244 242 249 241 192 218 183 188 118 213 114 218 159 197 250 305 263 198 181 189 221 172 202 233 248 271 262 245
Wind_Speed_850mb
34 35 38 40 42 44 46 46 46 45 44 42 40 40 38 33 29 27 24 28 31 39 32 31 23 31 41 56 29 35 32 24 22 14 20 22 33 19 12 14 26 14 8 15 15 16 20
30 32 34 35 38 39 40 42 42 42 41 41 41 41 37 33 29 28 29 31 30 28 42 46 34 32 47 63 32 31 30 27 35 26 32 35 37 41 29 10 11 16 27 15 16 18 22
29 30 29 31 33 34 35 37 40 40 39 39 40 43 39 34 28 27 23 24 24 20 36 31 30 51 76 35 30 26 34 37 39 37 37 29 17 10 16 14 15 12 10 8 31 24 7
28 29 29 28 29 30 31 33 36 37 37 37 37 36 38 40 45 32 21 22 32 33 23 18 30 54 39 37 29 19 27 34 36 36 43 40 42 48 18 25 12 11 10 6 6 21 2
25 27 27 28 27 26 28 30 33 34 34 34 33 29 28 29 23 19 36 23 6 17 33 28 11 26 17 26 37 31 28 26 26 31 31 22 35 24 12 8 9 14 3 4 11 11 10
20 23 24 26 27 25 24 26 30 32 35 34 32 28 28 30 28 25 12 25 58 6 9 14 18 18 28 30 37 25 22 19 11 11 13 16 21 11 10 10 5 4 1 6 9 9 11
19 20 20 22 24 25 23 24 27 30 32 34 34 34 31 26 27 35 3 3 9 29 67 37 29 20 35 15 35 37 15 12 16 24 13 22 21 8 6 7 4 2 2 5 8 2 9
21 21 22 21 22 23 22 22 25 27 29 31 32 34 32 19 20 17 34 44 38 19 26 39 46 31 38 32 19 43 34 14 20 10 12 16 11 7 6 5 7 6 2 8 12 5 6
23 21 22 22 22 23 23 23 25 28 31 30 29 30 32 14 18 9 13 20 16 12 12 23 35 41 35 28 28 46 35 17 21 17 17 14 2 7 1 9 4 1 1 5 9 17 1
24 24 23 23 24 25 25 25 26 28 31 33 30 28 31 22 9 13 12 10 6 3 11 28 26 24 34 8 16 36 29 11 17 6 6 11 7 3 2 4 2 5 5 4 8 9 6
26 24 23 23 25 25 26 27 27 28 29 31 31 28 30 24 14 10 4 3 3 4 12 18 16 18 19 18 9 27 30 18 9 5 6 2 4 6 7 3 3 3 4 3 5 5 5
25 25 24 24 26 27 27 28 30 31 30 31 31 27 28 28 23 13 4 5 5 13 2 12 15 21 11 24 14 20 14 16 11 6 11 4 2 3 5 5 2 4 2 7 5 5 5
23 25 27 27 25 26 28 30 33 32 31 31 30 28 28 36 25 16 5 7 11 14 8 12 9 12 2 13 15 21 11 15 8 10 11 9 1 4 7 5 3 11 10 9 12 9 9
19 23 27 29 29 29 29 32 35 35 34 33 29 24 27 40 28 16 2 10 19 6 9 2 5 4 9 15 9 17 5 8 10 10 7 7 13 8 12 6 3 6 8 9 9 7 11
15 21 25 29 32 32 32 33 35 38 36 35 29 17 32 40 28 17 2 14 14 12 2 4 2 11 10 7 1 9 12 4 7 13 8 8 10 3 8 3 5 2 8 5 11 3 6
13 16 21 25 30 33 35 37 38 39 41 37 25 7 39 37 23 12 10 8 5 4 3 1 6 3 2 11 9 11 8 4 6 10 2 3 9 2 5 2 12 7 6 7 7 10 15
11 13 16 20 25 30 35 38 40 42 43 38 18 3 39 35 16 14 9 8 5 2 3 8 4 4 3 3 4 7 7 6 5 2 8 6 7 9 2 5 11 5 5 10 5 7 8
18 14 15 17 22 26 31 37 40 43 46 38 12 6 36 24 12 13 5 8 6 4 3 3 4 4 1 3 0 2 3 11 3 4 3 1 7 6 16 1 4 1 8 8 8 12 7
27 22 20 18 20 23 26 31 38 42 46 41 10 11 29 19 7 5 3 2 1 3 3 2 4 4 3 4 8 2 2 6 9 8 10 10 3 8 21 5 6 5 9 8 5 4 14
34 31 26 23 21 22 22 26 31 35 38 34 13 7 16 25 19 13 6 2 2 1 2 4 6 4 4 6 3 6 5 7 8 6 7 9 6 15 14 15 6 10 11 9 10 4 11
40 37 33 29 25 23 22 21 24 28 31 28 17 8 7 5 12 13 5 6 2 3 2 3 4 5 9 1 2 6 4 5 4 8 5 6 10 5 10 16 10 25 30 17 27 39 17
45 43 40 36 31 27 25 20 19 21 22 19 9 4 6 6 3 4 4 5 8 6 6 3 6 5 10 8 7 7 4 4 9 2 6 3 6 4 12 10 12 23 35 33 36 35 29
50 48 46 42 38 34 29 26 20 18 15 7 8 4 2 1 2 4 6 9 7 6 6 3 7 7 5 13 17 20 18 15 2 6 10 4 6 5 12 8 18 18 18 16 9 10 13
55 51 50 48 44 39 36 32 28 22 15 10 7 5 4 6 4 8 10 10 13 11 6 7 13 9 6 7 19 16 6 3 2 4 7 9 7 3 9 12 3 13 2 7 18 19 25
61 56 53 52 50 46 42 38 35 30 25 18 14 9 4 4 9 11 20 11 11 12 10 10 15 11 6 5 7 12 8 9 8 8 3 3 7 3 3 5 21 15 3 8 7 15 18
67 64 60 57 55 53 47 44 42 39 36 33 24 22 14 1 12 11 10 15 7 6 2 9 10 13 9 6 7 7 7 7 9 11 7 6 9 5 6 4 12 7 2 4 6 11 11
75 72 68 65 61 59 55 52 51 48 45 43 39 32 27 14 26 30 17 11 16 9 5 7 11 13 16 4 3 7 8 2 5 7 9 4 2 10 6 8 22 24 18 7 7 12 2
82 79 77 76 72 69 66 62 59 58 55 55 55 50 51 26 46 48 40 35 23 18 9 18 10 7 6 4 7 6 7 9 3 9 13 15 15 10 5 8 21 29 16 13 6 9 11
92 90 86 84 81 79 76 74 71 68 65 62 67 67 63 50 27 30 48 59 58 49 28 33 12 17 27 6 3 6 7 4 6 7 5 8 16 12 25 18 2 36 25 24 26 21 14
Wind_Direction_850mb
60 58 57 55 53 52 51 48 47 46 45 45 43 36 31 33 38 42 43 46 60 59 63 70 91 103 96 74 35 46 47 49 52 76 98 101 102 95 94 106 75 79 125 70 75 70 83
61 56 55 52 52 49 48 49 44 41 41 39 35 34 32 34 39 46 54 62 63 64 74 78 86 101 88 71 47 50 59 68 70 81 95 98 96 104 81 71 69 115 100 89 56 47 55
54 53 50 51 49 48 45 42 43 40 37 35 34 36 36 38 44 47 50 55 54 64 74 75 77 72 68 60 54 59 66 68 72 77 86 88 110 100 103 95 107 117 76 42 23 354 52
52 49 44 42 44 46 43 39 36 37 34 31 34 37 41 51 55 49 58 69 64 67 68 74 70 69 71 54 56 71 65 70 72 75 80 84 90 82 73 113 52 50 52 22 322 6 276
48 46 44 39 36 39 42 38 33 30 29 29 29 34 33 24 11 360 59 54 59 71 65 62 80 62 53 48 59 59 65 75 76 75 74 83 78 70 71 69 38 15 144 317 308 48 317
50 47 42 39 37 34 36 36 33 28 23 22 19 12 1 3 15 31 82 67 58 141 105 51 63 77 26 22 36 40 63 66 97 89 71 59 61 64 29 41 179 235 26 289 270 341 348
33 40 40 40 36 33 32 29 27 24 22 18 16 12 9 13 21 39 117 133 58 49 62 65 54 73 30 44 42 34 49 59 69 63 47 31 64 48 333 334 349 130 181 270 259 39 325
32 26 28 27 29 29 28 25 19 19 19 16 16 17 13 22 21 42 63 75 77 104 69 51 52 47 31 27 35 40 53 63 56 52 353 33 58 327 294 10 72 49 3 290 280 16 352
39 31 25 22 16 18 19 17 12 8 7 9 14 18 20 28 30 22 39 61 62 78 76 26 29 24 16 25 39 13 25 35 54 49 18 91 301 317 171 30 21 39 182 319 261 331 68
34 31 27 21 14 9 10 8 8 6 5 5 8 18 22 30 34 31 48 50 55 51 74 334 357 20 2 30 45 19 26 48 39 137 77 88 331 349 115 96 110 295 78 317 298 19 287
29 31 28 24 15 13 12 10 8 7 3 5 6 12 21 26 34 38 58 80 80 101 55 323 341 345 12 67 341 14 28 58 80 90 121 263 6 18 59 343 80 302 338 279 79 104 13
28 23 23 23 19 13 10 6 8 6 7 5 4 6 16 19 19 32 79 133 114 44 319 339 337 353 13 21 17 351 28 62 75 93 38 110 99 54 348 313 214 8 65 45 67 104 17
22 20 20 19 21 16 8 2 2 3 3 4 4 2 8 12 11 13 79 141 42 91 350 315 333 4 59 348 354 21 29 16 51 59 359 344 78 49 15 334 84 38 42 341 354 5 234
17 18 16 16 15 16 11 3 359 358 359 359 359 0 8 4 7 12 71 57 69 251 236 17 300 304 48 360 25 353 38 40 46 41 80 72 333 16 352 76 207 45 119 139 279 287 282
3 12 14 10 11 12 10 7 2 356 357 354 353 5 7 4 2 9 42 50 183 193 196 331 293 57 335 0 118 28 23 34 24 27 89 33 294 21 32 9 57 320 41 142 95 95 25
347 1 6 5 7 6 8 9 5 0 355 353 353 23 7 2 3 8 72 155 145 211 327 249 94 92 332 312 17 44 6 25 57 44 66 190 335 304 286 57 42 101 160 32 13 336 311
303 330 350 357 1 3 4 7 6 1 358 354 2 28 2 359 6 43 97 201 225 185 27 23 114 89 149 316 11 354 343 33 27 42 56 126 92 288 49 194 180 25 14 44 118 143 213
270 291 315 337 348 356 359 1 4 2 1 0 15 31 360 10 37 52 80 192 141 149 106 94 84 92 118 153 255 89 225 184 171 157 72 180 132 275 236 81 10 315 203 157 126 261 232
261 271 287 307 327 341 351 358 360 3 3 2 16 11 14 31 79 11 7 46 100 146 114 111 117 70 105 143 17 315 294 194 182 171 170 169 310 349 335 42 12 205 209 160 122 83 204
255 261 270 286 304 318 336 349 356 359 5 6 4 16 31 50 72 113 126 329 91 132 117 125 120 120 142 18 12 244 257 182 191 176 160 165 178 182 213 222 160 246 213 195 141 180 250
254 259 262 267 278 295 313 331 345 355 1 10 19 49 11 324 20 74 80 127 87 284 151 165 41 218 162 74 316 261 261 297 143 161 144 140 217 224 258 252 211 256 257 198 204 235 215
253 256 259 261 267 275 287 304 324 341 357 15 31 360 30 66 55 94 29 194 179 278 167 231 157 177 172 178 222 276 190 243 250 126 156 19 259 104 281 292 254 266 250 238 234 253 257
252 253 256 257 259 263 270 279 291 312 338 9 20 16 326 1 357 81 219 169 199 169 204 226 199 131 211 245 268 268 244 261 271 171 173 152 131 37 267 334 312 296 228 182 190 221 166
250 252 253 255 256 257 261 266 272 278 288 295 298 299 294 262 204 210 193 193 193 210 213 205 201 177 213 279 295 271 239 198 146 112 194 132 88 72 276 342 20 250 213 186 191 243 208
248 249 250 252 254 255 255 257 263 268 272 271 267 244 249 283 247 247 219 203 190 210 215 226 224 226 214 316 14 354 340 20 5 28 22 156 127 290 264 227 292 286 161 138 185 269 236
249 249 249 250 251 252 251 254 255 258 259 260 257 250 226 219 251 252 180 201 193 207 191 211 209 201 192 80 72 160 235 217 292 328 20 63 70 143 71 194 264 251 101 123 170 286 36
247 250 252 251 250 250 249 250 252 253 254 255 253 246 231 231 251 234 209 199 182 178 132 163 174 177 182 101 157 190 239 148 240 197 173 143 186 215 168 256 278 259 218 167 63 290 225
246 247 249 250 251 250 249 249 250 252 249 253 254 250 241 230 249 248 238 227 203 193 164 167 127 201 122 153 175 206 209 216 193 198 182 180 163 198 128 218 274 181 137 191 201 211 211
247 248 248 248 248 249 250 250 249 250 249 249 248 252 246 229 258 254 245 244 242 249 241 192 218 183 188 118 213 114 218 159 197 250 305 263 198 181 189 221 172 202 233 248 271 262 245